[Date Prev][Date Next][Thread Prev][Thread Next] - [Date Index][Thread Index][Author Index]

MIR Keps 1-28 ~AFTER BURN ~ These wl update yesterdays keps by abt 25 sec's



MIR
1 16609U 86017A   99028.15147982 -.00006147  00000-0 -42405-4 0  1529
2 16609  51.6623 341.0598 0010482  52.1516 308.0425 15.71354291739371

----
Via the sarex mailing list at AMSAT.ORG courtesy of AMSAT-NA.
To unsubscribe, send "unsubscribe sarex" to Majordomo@amsat.org



AMSAT Top AMSAT Home